Date,TemperatureHighF,TemperatureAvgF,TemperatureLowF,DewpointHighF,DewpointAvgF,DewpointLowF,HumidityHigh,HumidityAvg,HumidityLow,PressureMaxIn,PressureMinIn,WindSpeedMaxMPH,WindSpeedAvgMPH,GustSpeedMaxMPH,PrecipitationSumIn
2013-10-1,75.3,60.8,48.3,56.2,47.0,37.0,96,66,27,29.85,29.49,20,2,30,0.00
2013-10-2,73.0,55.8,45.4,54.8,47.2,40.5,97,75,41,29.98,29.85,10,1,16,0.15
2013-10-3,57.0,53.2,50.9,54.2,51.9,50.1,98,95,88,30.01,29.90,12,2,20,0.15
2013-10-4,55.9,52.8,51.2,51.4,49.5,46.3,97,89,80,30.10,30.00,22,5,29,0.02
2013-10-5,52.3,48.1,47.0,48.9,47.2,46.2,98,97,86,30.04,29.74,28,7,32,1.10
2013-10-6,54.6,48.5,39.8,51.7,47.2,39.0,100,95,86,29.75,29.64,18,2,27,0.09
2013-10-7,64.5,49.5,38.8,50.3,43.6,38.0,99,82,47,29.93,29.72,11,1,13,0.00
2013-10-8,65.9,49.7,36.1,54.4,45.4,35.0,99,86,59,29.93,29.74,6,1,0,0.00
2013-10-9,75.4,60.3,49.5,58.1,52.5,47.3,94,77,51,30.00,29.83,11,2,19,0.00
2013-10-10,67.8,54.1,42.7,55.4,48.5,41.5,99,82,59,30.02,29.90,13,1,13,0.00
2013-10-11,66.5,57.7,50.4,57.5,52.9,48.0,97,84,69,29.92,29.60,17,2,20,0.05
2013-10-12,63.8,55.3,48.1,57.2,48.8,44.9,96,79,63,30.01,29.58,17,4,22,0.02
2013-10-13,60.0,46.3,38.9,46.4,40.6,35.4,97,82,40,30.37,30.01,12,2,0,0.00
2013-10-14,51.9,45.3,39.0,46.6,41.7,35.1,95,87,76,30.40,30.12,14,2,0,0.02
2013-10-15,49.7,47.2,43.7,47.8,46.0,42.9,98,96,82,30.13,29.74,22,5,0,1.05
2013-10-16,53.7,44.5,35.8,44.2,40.6,34.4,97,87,60,29.89,29.81,9,2,0,0.01
2013-10-17,49.2,41.9,32.2,48.4,41.0,31.2,100,97,93,29.81,29.75,8,0,0,0.19
2013-10-18,52.6,43.4,36.1,41.0,37.5,33.2,100,82,48,29.89,29.76,11,2,0,0.02
2013-10-19,47.4,39.0,33.2,41.8,36.8,31.9,98,92,74,29.76,29.63,9,1,0,0.11
2013-10-20,41.0,35.8,30.4,39.7,34.7,29.4,98,96,90,29.74,29.69,9,0,0,0.18
2013-10-21,38.6,34.8,31.6,34.6,31.0,26.7,95,86,70,29.85,29.73,19,4,0,0.02
2013-10-22,39.5,34.4,29.9,33.4,30.5,27.4,96,86,67,29.99,29.85,11,2,0,0.00
2013-10-23,42.2,35.0,30.7,30.9,28.6,25.7,91,78,56,30.02,29.90,12,2,0,0.00
2013-10-24,45.2,35.7,28.6,33.3,29.9,26.8,94,80,53,30.23,30.01,16,2,0,0.00
2013-10-25,50.0,38.8,27.4,41.1,32.8,25.9,96,80,59,30.23,29.61,20,4,0,0.01
2013-10-26,49.2,41.7,36.0,39.9,34.7,31.3,91,77,55,30.00,29.66,14,2,0,0.01
2013-10-27,51.6,41.2,35.4,36.3,32.6,30.0,85,72,54,29.95,29.75,16,3,0,0.00